Orbital Elements at Epoch 2459000.5 (2020-May-31.0) TDB
Reference: JPL 11 (heliocentric ecliptic J2000)
Element | Value | Uncertainty (1-sigma) | Units |
e | .08460565123636569 | 6.7595e-08 | |
a | 2.663592860801058 | 2.8917e-08 | au |
q | 2.438237852184451 | 1.7061e-07 | au |
i | 14.52984533114607 | 5.7005e-06 | deg |
node | 138.4392854235439 | 2.8115e-05 | deg |
peri | 145.8846371144522 | 5.3472e-05 | deg |
M | 81.49978464722525 | 5.0188e-05 | deg |
tp | 2458641.037036384661 (2019-Jun-06.53703638) | 0.0002188 | TDB |
period | 1587.816059412468 4.35 | 2.5857e-05 7.079e-08 | d yr |
n | .2267265139850072 | 3.6922e-09 | deg/d |
Q | 2.888947869417667 | 3.1364e-08 | au |
|
| | Orbit Determination Parameters
Additional Information
|